COSMOS 2251 DEB

Satellite information

Favourite Embed

Satellite Type and Status

DEBRISIN ORBIT

Key statistics

Satellite COSMOS 2251 DEB at a glance.

Uptime

11649

Days in orbit

Revolutions

≈ 14.5

Per day

Orbit

LEO

Low Earth Orbit

Inclination

74.0

Latest

Satellite identification and parameters

Extended collection of information and parameters for COSMOS 2251 DEB.

Object identification

Identified? True

Debris? True

Object name: COSMOS 2251 DEB

International designator: 1993-036BRW

Object number (NORAD): 38064

Object ID (CCSDS): 38064

Country: COMMONWEALTH OF INDEPENDENT STATES (CIS)

Current information (Y/N): Y

RCS size: SMALL

Orbital parameters

Period: 98.999 minutes

Inclination: 74.0236 deg

SMA: 7088.95 km

Apoapsis: 746.137 km

Periapsis: 675.494 km

RAAN: 180.933 deg

Eccentricy: 0.0049826

Argument of periapsis: 351.6495 deg

Mean anomaly: 8.3832 deg

Mean motion: 14.54554067 rev/day

Mean motion (dot): 0.0000299 rev/day2

B* drag term: 0.00069611 1/REarth

Two-line elements (TLE)

Creation date: May 7, 2025, 3:14 a.m.

Reference frame: TEME

Reference center: EARTH

Epoch: May 6, 2025, 8:04 p.m. UTC

TLE line 0: 0 COSMOS 2251 DEB

TLE line 1: 1 38064U 93036BRW 25126.83674095 .00002990 00000-0 69611-3 0 9996

TLE line 2: 2 38064 74.0236 180.9330 0049826 351.6495 8.3832 14.54554067686668

Live tracking on map

Real-time ground track for satellite COSMOS 2251 DEB.

In-orbit conjunctions

A list of the most updated potential collisions computed for object COSMOS 2251 DEB.

Target Orbit TCA Probability of collision Miss distance Type
MAST SSO 2025-02-12 23:17:36 0.001478726 356.0 (m) PAYLOAD
CZ-6A DEB LEO 2024-10-27 09:56:46 0.0002063427 280.0 (m) DEBRIS
SCOUT B-1 R/B LEO 2024-06-29 01:36:24 0.0007054994 282.0 (m) ROCKET BODY

Associated space launch

Military communications satellite. Destroyed in a collision with Iridium 33.

COSMOS 2251 DEB was lifted into orbit during the mission ‘Kosmos-3M | Strela-2M 51’, on board a Kosmos-3M space rocket.

The launch took place on June 16, 1993, 4:17 a.m. from 132/1 (132L).

For more information about the launch, click the button.

Launch to space Kosmos-3M | Strela-2M 51
Kosmos-3M | Strela-2M 51

Agency: N/A

Status: Launch Successful

Launch date: June 16, 1993, 4:17 a.m. UTC

Rocket: Kosmos-3M

Launch pad: 132/1 (132L)

Location: Plesetsk Cosmodrome, Russian Federation

...

Latest news about this satellite

There are no fresh news available about this satellite. Check back as we update our databases every day.


Newsletter sign-up

Weekly statistics, charts and insights to help you stay on top of the space industry.